CPA720 OERK-VHHH

Flight info

Callsign CPA720
Flight time 7h 35m
Altitude 37000
Route RAPMA Y214 KUTNA M440 MIDGU/N0488F350 M440 TULBU/N0481F370 N881 RASKI L639 BPL A791 GOLOX/N0475F390 A791 CEA B465 CTG A599 LINSO/K0880S1190 A599 POU R473 SIERA
Aircraft A333/H-SDE3GHIJ2J3J5M1RVWXY/LB2D1

Departure

Time 2026-05-07 12:39
Airport King Khalid International Airport (OERK)

Arrival

Time 2026-05-07 20:14
Airport Hong Kong International Airport (VHHH)
Time Latitude Longitude Altitude Speed Heading
2026-05-07 12:09 24.96479 46.70063 2051 ft 0 kts 191°
2026-05-07 12:23 24.96488 46.70065 2051 ft 3 kts 186°
2026-05-07 12:24 24.96506 46.70066 2051 ft 3 kts 165°
2026-05-07 12:24 24.96521 46.70060 2055 ft 3 kts 132°
2026-05-07 12:24 24.96528 46.70049 2051 ft 3 kts 91°
2026-05-07 12:24 24.96526 46.70036 2053 ft 1 kts 61°
2026-05-07 12:25 24.96525 46.70033 2053 ft 0 kts 60°
2026-05-07 12:30 24.96541 46.70063 2055 ft 5 kts 60°
2026-05-07 12:31 24.96548 46.70076 2051 ft 0 kts 61°
2026-05-07 12:31 24.96548 46.70077 2051 ft 0 kts 61°
2026-05-07 12:31 24.96552 46.70079 2051 ft 1 kts 42°
2026-05-07 12:31 24.96553 46.70079 2051 ft 0 kts 35°
2026-05-07 12:32 24.96559 46.70080 2057 ft 3 kts 12°
2026-05-07 12:32 24.96581 46.70072 2055 ft 4 kts 327°
2026-05-07 12:32 24.96608 46.70047 2052 ft 6 kts 323°
2026-05-07 12:32 24.96648 46.70017 2052 ft 10 kts 328°
2026-05-07 12:33 24.96788 46.69981 2056 ft 9 kts 10°
2026-05-07 12:33 24.96841 46.70007 2054 ft 8 kts 34°
2026-05-07 12:33 24.96878 46.70057 2053 ft 9 kts 60°
2026-05-07 12:34 24.96893 46.70086 2055 ft 0 kts 61°
2026-05-07 12:34 24.96910 46.70118 2055 ft 8 kts 60°
2026-05-07 12:34 24.96936 46.70170 2053 ft 8 kts 61°
2026-05-07 12:35 24.96967 46.70227 2054 ft 9 kts 59°
2026-05-07 12:35 24.97013 46.70268 2052 ft 9 kts
2026-05-07 12:35 24.97079 46.70243 2053 ft 10 kts 328°
2026-05-07 12:35 24.97143 46.70205 2052 ft 13 kts 330°
2026-05-07 12:36 24.97226 46.70155 2053 ft 14 kts 332°
2026-05-07 12:36 24.97309 46.70100 2056 ft 14 kts 330°
2026-05-07 12:36 24.97397 46.70046 2053 ft 15 kts 330°
2026-05-07 12:36 24.97456 46.70008 2051 ft 15 kts 330°
2026-05-07 12:37 24.97548 46.69995 2051 ft 13 kts 37°
2026-05-07 12:37 24.97602 46.70080 2045 ft 14 kts 60°
2026-05-07 12:37 24.97625 46.70221 2046 ft 14 kts 112°
2026-05-07 12:37 24.97578 46.70270 2039 ft 15 kts 148°
2026-05-07 12:38 24.97330 46.70429 2040 ft 75 kts 151°
2026-05-07 12:38 24.96690 46.70838 2042 ft 135 kts 148°
2026-05-07 12:38 24.95754 46.71430 2072 ft 174 kts 147°
2026-05-07 12:38 24.94708 46.72110 2495 ft 176 kts 147°
2026-05-07 12:39 24.93690 46.72855 3047 ft 173 kts 134°
2026-05-07 12:39 24.92840 46.73735 3661 ft 159 kts 125°
2026-05-07 12:39 24.92153 46.74631 4059 ft 153 kts 128°
2026-05-07 12:39 24.91419 46.75555 4141 ft 167 kts 132°
2026-05-07 12:40 24.90598 46.76532 4232 ft 180 kts 134°
2026-05-07 12:40 24.89698 46.77550 4310 ft 197 kts 134°
2026-05-07 12:40 24.88674 46.78664 4401 ft 216 kts 135°
2026-05-07 12:40 24.87538 46.79855 4471 ft 233 kts 136°
2026-05-07 12:41 24.86304 46.81106 4556 ft 248 kts 137°
2026-05-07 12:41 24.84890 46.82273 4702 ft 263 kts 157°
2026-05-07 12:41 24.83076 46.82630 5057 ft 270 kts 185°
2026-05-07 12:41 24.81252 46.82196 5650 ft 267 kts 193°
2026-05-07 12:42 24.79416 46.81788 6084 ft 269 kts 186°
2026-05-07 12:42 24.77556 46.81566 6569 ft 269 kts 183°
2026-05-07 12:42 24.75690 46.81459 7036 ft 270 kts 181°
2026-05-07 12:42 24.73820 46.81675 7472 ft 273 kts 160°
2026-05-07 12:43 24.72100 46.82505 7951 ft 274 kts 155°
2026-05-07 12:43 24.70352 46.83390 8421 ft 277 kts 158°
2026-05-07 12:43 24.68569 46.84210 8869 ft 279 kts 160°
2026-05-07 12:43 24.66757 46.84990 9331 ft 281 kts 161°
2026-05-07 12:44 24.64931 46.85749 9824 ft 281 kts 161°
2026-05-07 12:44 24.63080 46.86508 10215 ft 285 kts 162°
2026-05-07 12:44 24.61211 46.87270 10649 ft 287 kts 162°
2026-05-07 12:44 24.59329 46.88034 11023 ft 291 kts 162°
2026-05-07 12:45 24.57426 46.88806 11452 ft 292 kts 162°
2026-05-07 12:45 24.55509 46.89584 11901 ft 294 kts 162°
2026-05-07 12:45 24.53601 46.90358 12316 ft 297 kts 162°
2026-05-07 12:45 24.51650 46.91149 12719 ft 300 kts 162°
2026-05-07 12:46 24.49681 46.91947 13138 ft 303 kts 162°
2026-05-07 12:46 24.47691 46.92753 13555 ft 305 kts 162°
2026-05-07 12:46 24.45682 46.93566 13938 ft 308 kts 162°
2026-05-07 12:46 24.43662 46.94384 14314 ft 311 kts 162°
2026-05-07 12:47 24.41620 46.95210 14692 ft 313 kts 162°
2026-05-07 12:47 24.39570 46.96040 15060 ft 315 kts 162°
2026-05-07 12:47 24.37504 46.96875 15429 ft 318 kts 162°
2026-05-07 12:47 24.35451 46.97705 15801 ft 320 kts 162°
2026-05-07 12:48 24.33354 46.98552 16162 ft 323 kts 162°
2026-05-07 12:48 24.31241 46.99406 16538 ft 325 kts 162°
2026-05-07 12:48 24.29111 47.00266 16904 ft 327 kts 162°
2026-05-07 12:48 24.26971 47.01130 17352 ft 326 kts 162°
2026-05-07 12:49 24.24849 47.01987 17745 ft 328 kts 162°
2026-05-07 12:49 24.22660 47.02868 17831 ft 340 kts 162°
2026-05-07 12:49 24.20426 47.03767 17913 ft 351 kts 162°
2026-05-07 12:49 24.18090 47.04707 17995 ft 363 kts 162°
2026-05-07 12:50 24.15674 47.05682 18074 ft 375 kts 162°
2026-05-07 12:50 24.13191 47.06683 18208 ft 384 kts 162°
2026-05-07 12:50 24.10686 47.07698 18628 ft 383 kts 160°
2026-05-07 12:50 24.08363 47.09185 18920 ft 391 kts 140°
2026-05-07 12:51 24.06606 47.11455 19251 ft 397 kts 121°
2026-05-07 12:51 24.05606 47.14252 19556 ft 404 kts 101°
2026-05-07 12:51 24.05150 47.17330 19868 ft 406 kts 104°
2026-05-07 12:51 24.04200 47.20218 20195 ft 404 kts 120°
2026-05-07 12:52 24.02773 47.22817 20492 ft 405 kts 127°
2026-05-07 12:52 24.01176 47.25377 20816 ft 407 kts 126°
2026-05-07 12:52 23.99608 47.27975 21131 ft 410 kts 124°
2026-05-07 12:52 23.98083 47.30628 21444 ft 413 kts 123°
2026-05-07 12:53 23.96562 47.33313 21755 ft 415 kts 123°
2026-05-07 12:53 23.95028 47.36009 22072 ft 418 kts 124°
2026-05-07 12:53 23.93483 47.38707 22373 ft 420 kts 124°
2026-05-07 12:53 23.91945 47.41384 22671 ft 423 kts 124°
2026-05-07 12:54 23.90379 47.44111 22975 ft 425 kts 124°
2026-05-07 12:54 23.88796 47.46867 23280 ft 428 kts 123°
2026-05-07 12:54 23.87215 47.49620 23578 ft 430 kts 124°
2026-05-07 12:54 23.85621 47.52395 23820 ft 432 kts 124°
2026-05-07 12:55 23.84021 47.55178 24053 ft 433 kts 124°
2026-05-07 12:55 23.82408 47.57981 24286 ft 436 kts 124°
2026-05-07 12:55 23.80793 47.60786 24517 ft 438 kts 124°
2026-05-07 12:55 23.79163 47.63615 24751 ft 440 kts 124°
2026-05-07 12:56 23.77529 47.66449 24965 ft 442 kts 125°
2026-05-07 12:56 23.75904 47.69266 25191 ft 443 kts 125°
2026-05-07 12:56 23.74260 47.72116 25398 ft 445 kts 125°
2026-05-07 12:56 23.72604 47.74984 25648 ft 447 kts 125°
2026-05-07 12:57 23.70941 47.77863 25840 ft 449 kts 125°
2026-05-07 12:57 23.69268 47.80755 26060 ft 450 kts 125°
2026-05-07 12:57 23.67595 47.83648 26275 ft 452 kts 126°
2026-05-07 12:57 23.65914 47.86552 26477 ft 454 kts 126°
2026-05-07 12:58 23.64243 47.89438 26665 ft 456 kts 126°
2026-05-07 12:58 23.62540 47.92377 26882 ft 457 kts 126°
2026-05-07 12:58 23.60838 47.95313 27082 ft 458 kts 126°
2026-05-07 12:58 23.59129 47.98259 27286 ft 460 kts 126°
2026-05-07 12:59 23.57415 48.01212 27485 ft 461 kts 126°
2026-05-07 12:59 23.55695 48.04174 27683 ft 463 kts 126°
2026-05-07 12:59 23.53967 48.07147 27864 ft 464 kts 126°
2026-05-07 12:59 23.52256 48.10089 28058 ft 466 kts 126°
2026-05-07 13:00 23.50511 48.13088 28243 ft 468 kts 126°
2026-05-07 13:00 23.48766 48.16085 28438 ft 469 kts 126°
2026-05-07 13:00 23.47017 48.19089 28616 ft 471 kts 126°
2026-05-07 13:00 23.45251 48.22118 28796 ft 472 kts 126°
2026-05-07 13:01 23.43487 48.25144 28985 ft 473 kts 126°
2026-05-07 13:01 23.41739 48.28139 29153 ft 475 kts 127°
2026-05-07 13:01 23.39960 48.31186 29297 ft 477 kts 127°
2026-05-07 13:01 23.38180 48.34233 29517 ft 478 kts 127°
2026-05-07 13:02 23.36652 48.37465 29623 ft 487 kts 111°
2026-05-07 13:02 23.35944 48.41092 29781 ft 495 kts 95°
2026-05-07 13:02 23.36143 48.44862 29890 ft 502 kts 78°
2026-05-07 13:02 23.37157 48.48521 29985 ft 505 kts 73°
2026-05-07 13:03 23.37853 48.52255 30110 ft 502 kts 90°
2026-05-07 13:03 23.37693 48.56020 30262 ft 498 kts 102°
2026-05-07 13:03 23.36938 48.63547 30516 ft 502 kts 95°
2026-05-07 13:04 23.36830 48.67354 30647 ft 504 kts 94°
2026-05-07 13:04 23.36740 48.71130 30771 ft 505 kts 95°
2026-05-07 13:04 23.36593 48.74948 30927 ft 505 kts 95°
2026-05-07 13:04 23.36414 48.78771 31035 ft 506 kts 96°
2026-05-07 13:05 23.36238 48.82622 31145 ft 508 kts 95°
2026-05-07 13:05 23.36076 48.86464 31282 ft 508 kts 95°
2026-05-07 13:05 23.35916 48.90311 31415 ft 509 kts 95°
2026-05-07 13:05 23.35752 48.94151 31518 ft 510 kts 95°
2026-05-07 13:06 23.35584 48.98023 31649 ft 511 kts 95°
2026-05-07 13:06 23.35415 49.01883 31753 ft 512 kts 95°
2026-05-07 13:06 23.35245 49.05758 31859 ft 512 kts 95°
2026-05-07 13:06 23.35071 49.09630 31973 ft 513 kts 95°
2026-05-07 13:07 23.34893 49.13452 32082 ft 514 kts 95°
2026-05-07 13:07 23.34717 49.17343 32167 ft 515 kts 95°
2026-05-07 13:07 23.34371 49.25133 32376 ft 516 kts 95°
2026-05-07 13:08 23.34016 49.32961 32582 ft 518 kts 95°
2026-05-07 13:08 23.33655 49.40823 32776 ft 520 kts 95°
2026-05-07 13:09 23.33473 49.44761 32879 ft 520 kts 95°
2026-05-07 13:09 23.33291 49.48698 32973 ft 521 kts 95°
2026-05-07 13:09 23.32923 49.56549 33192 ft 523 kts 95°
2026-05-07 13:10 23.32736 49.60498 33348 ft 522 kts 95°
2026-05-07 13:10 23.32549 49.64453 33510 ft 522 kts 95°
2026-05-07 13:10 23.32361 49.68397 33667 ft 522 kts 95°
2026-05-07 13:10 23.32173 49.72302 33813 ft 522 kts 95°
2026-05-07 13:11 23.31983 49.76250 33943 ft 521 kts 95°
2026-05-07 13:11 23.31792 49.80193 34048 ft 521 kts 95°
2026-05-07 13:11 23.31600 49.84135 34150 ft 521 kts 95°
2026-05-07 13:11 23.31408 49.88038 34253 ft 520 kts 95°
2026-05-07 13:12 23.31215 49.91968 34356 ft 520 kts 95°
2026-05-07 13:12 23.31020 49.95904 34441 ft 520 kts 95°
2026-05-07 13:12 23.30629 50.03748 34605 ft 519 kts 95°
2026-05-07 13:13 23.30234 50.11591 34744 ft 518 kts 95°
2026-05-07 13:13 23.29838 50.19379 34769 ft 518 kts 95°
2026-05-07 13:14 23.29436 50.27212 34775 ft 518 kts 95°
2026-05-07 13:14 23.29030 50.35039 34775 ft 518 kts 95°
2026-05-07 13:15 23.28620 50.42861 34774 ft 518 kts 95°
2026-05-07 13:15 23.28207 50.50685 34774 ft 517 kts 95°
2026-05-07 13:16 23.27792 50.58454 34771 ft 517 kts 95°
2026-05-07 13:16 23.27372 50.66262 34770 ft 517 kts 95°
2026-05-07 13:17 23.26947 50.74076 34767 ft 517 kts 95°
2026-05-07 13:17 23.26519 50.81877 34765 ft 516 kts 95°
2026-05-07 13:18 23.26087 50.89676 34764 ft 516 kts 95°
2026-05-07 13:18 23.25653 50.97462 34767 ft 515 kts 95°
2026-05-07 13:19 23.25216 51.05205 34766 ft 515 kts 95°
2026-05-07 13:19 23.24774 51.12985 34757 ft 515 kts 95°
2026-05-07 13:20 23.24303 51.20743 34764 ft 514 kts 95°
2026-05-07 13:20 23.23834 51.28471 34763 ft 514 kts 95°
2026-05-07 13:21 23.23388 51.36239 34758 ft 514 kts 95°
2026-05-07 13:21 23.22926 51.43996 34759 ft 514 kts 95°
2026-05-07 13:22 23.21702 51.51569 34759 ft 506 kts 118°
2026-05-07 13:22 23.19949 51.54854 34762 ft 501 kts 129°
2026-05-07 13:22 23.18006 51.58017 34760 ft 504 kts 121°
2026-05-07 13:23 23.15288 51.65041 34755 ft 509 kts 111°
2026-05-07 13:23 23.12637 51.72180 34756 ft 508 kts 116°
2026-05-07 13:24 23.09829 51.79217 34756 ft 508 kts 115°
2026-05-07 13:24 23.07554 51.85096 34758 ft 507 kts 115°
2026-05-07 13:25 23.04802 51.92149 34754 ft 506 kts 115°
2026-05-07 13:25 23.02042 51.99197 34755 ft 506 kts 115°
2026-05-07 13:26 22.99298 52.06184 34753 ft 506 kts 115°
2026-05-07 13:26 22.96540 52.13214 34759 ft 506 kts 115°
2026-05-07 13:27 22.93782 52.20241 34755 ft 505 kts 115°
2026-05-07 13:27 22.91023 52.27255 34756 ft 505 kts 115°
2026-05-07 13:28 22.88283 52.34213 34756 ft 504 kts 115°
2026-05-07 13:28 22.85523 52.41209 34760 ft 504 kts 115°
2026-05-07 13:29 22.82761 52.48201 34758 ft 504 kts 115°
2026-05-07 13:29 22.81515 52.51754 34760 ft 505 kts 104°
2026-05-07 13:29 22.81061 52.55485 34767 ft 507 kts 89°
2026-05-07 13:30 22.80922 52.63128 34764 ft 507 kts 98°
2026-05-07 13:30 22.79813 52.70693 34760 ft 508 kts 99°
2026-05-07 13:31 22.78898 52.78297 34759 ft 508 kts 98°
2026-05-07 13:31 22.77994 52.85882 34761 ft 507 kts 98°
2026-05-07 13:32 22.77056 52.93456 34773 ft 507 kts 98°
2026-05-07 13:32 22.76135 53.00976 34763 ft 506 kts 98°
2026-05-07 13:33 22.75201 53.08544 34762 ft 506 kts 98°
2026-05-07 13:33 22.74265 53.16106 34773 ft 506 kts 98°
2026-05-07 13:34 22.72853 53.27454 34763 ft 506 kts 98°
2026-05-07 13:35 22.71908 53.35011 34772 ft 506 kts 98°
2026-05-07 13:35 22.70960 53.42562 34765 ft 506 kts 98°
2026-05-07 13:36 22.70006 53.50132 34767 ft 506 kts 98°
2026-05-07 13:36 22.69054 53.57634 34774 ft 506 kts 99°
2026-05-07 13:37 22.68076 53.65193 34771 ft 508 kts 98°
2026-05-07 13:37 22.67113 53.72798 34767 ft 511 kts 98°
2026-05-07 13:38 22.66135 53.80451 34772 ft 514 kts 98°
2026-05-07 13:38 22.65153 53.88098 34771 ft 516 kts 98°
2026-05-07 13:39 22.64159 53.95819 34773 ft 519 kts 99°
2026-05-07 13:39 22.63155 54.03581 34775 ft 521 kts 99°
2026-05-07 13:40 22.62145 54.11366 34775 ft 523 kts 99°
2026-05-07 13:40 22.61127 54.19179 34778 ft 524 kts 99°
2026-05-07 13:41 22.60104 54.27000 34774 ft 524 kts 99°
2026-05-07 13:41 22.59063 54.34813 34781 ft 524 kts 99°
2026-05-07 13:42 22.58039 54.42569 34780 ft 523 kts 99°
2026-05-07 13:42 22.57006 54.50375 34782 ft 523 kts 99°
2026-05-07 13:43 22.55966 54.58180 34780 ft 523 kts 99°
2026-05-07 13:43 22.54925 54.65979 34783 ft 523 kts 99°
2026-05-07 13:44 22.53887 54.73720 34784 ft 524 kts 99°
2026-05-07 13:44 22.52836 54.81530 34783 ft 523 kts 99°
2026-05-07 13:45 22.51783 54.89328 34782 ft 523 kts 99°
2026-05-07 13:45 22.50727 54.97113 34785 ft 523 kts 99°
2026-05-07 13:46 22.49667 55.04904 34788 ft 523 kts 99°
2026-05-07 13:46 22.48612 55.12632 34788 ft 523 kts 99°
2026-05-07 13:47 22.47545 55.20415 34791 ft 523 kts 99°
2026-05-07 13:47 22.46473 55.28204 34794 ft 522 kts 99°
2026-05-07 13:48 22.45401 55.35969 34788 ft 522 kts 99°
2026-05-07 13:48 22.45198 55.43719 34798 ft 522 kts 76°
2026-05-07 13:48 22.46361 55.47433 34798 ft 521 kts 61°
2026-05-07 13:49 22.48348 55.50696 34794 ft 518 kts 45°
2026-05-07 13:49 22.52986 55.56626 34800 ft 520 kts 63°
2026-05-07 13:49 22.54294 55.60258 34803 ft 521 kts 76°
2026-05-07 13:50 22.55185 55.64064 34801 ft 522 kts 73°
2026-05-07 13:50 22.57794 55.71345 34800 ft 523 kts 65°
2026-05-07 13:51 22.60641 55.78601 34806 ft 524 kts 68°
2026-05-07 13:51 22.63318 55.85940 34807 ft 523 kts 67°
2026-05-07 13:52 22.66054 55.93241 34808 ft 523 kts 67°
2026-05-07 13:52 22.68754 56.00502 34815 ft 522 kts 67°
2026-05-07 13:53 22.71465 56.07808 34818 ft 522 kts 67°
2026-05-07 13:53 22.74170 56.15103 34822 ft 522 kts 67°
2026-05-07 13:54 22.76878 56.22421 34827 ft 522 kts 67°
2026-05-07 13:54 22.79569 56.29703 34828 ft 523 kts 68°
2026-05-07 13:55 22.82270 56.37026 34831 ft 523 kts 68°
2026-05-07 13:55 22.84251 56.44601 34842 ft 524 kts 83°
2026-05-07 13:56 22.85352 56.52409 34846 ft 524 kts 77°
2026-05-07 13:56 22.86948 56.60122 34851 ft 524 kts 77°
2026-05-07 13:57 22.88387 56.67826 34861 ft 524 kts 78°
2026-05-07 13:57 22.89844 56.75567 34871 ft 524 kts 78°
2026-05-07 13:58 22.91310 56.83310 34878 ft 524 kts 78°
2026-05-07 13:58 22.92764 56.91053 34884 ft 524 kts 78°
2026-05-07 13:59 22.94209 56.98762 34893 ft 524 kts 78°
2026-05-07 13:59 22.95657 57.06507 34896 ft 523 kts 78°
2026-05-07 14:00 22.97100 57.14247 34902 ft 523 kts 78°
2026-05-07 14:00 22.98538 57.21981 34902 ft 523 kts 78°
2026-05-07 14:01 22.99975 57.29732 34907 ft 524 kts 78°
2026-05-07 14:01 23.00575 57.37584 34911 ft 523 kts 93°
2026-05-07 14:02 23.00527 57.45495 34905 ft 524 kts 87°
2026-05-07 14:02 23.00888 57.53362 34903 ft 525 kts 88°
2026-05-07 14:03 23.01107 57.61285 34903 ft 525 kts 88°
2026-05-07 14:03 23.01344 57.69206 34886 ft 525 kts 88°
2026-05-07 14:04 23.01585 57.77126 34880 ft 525 kts 88°
2026-05-07 14:04 23.01814 57.85044 34862 ft 524 kts 88°
2026-05-07 14:05 23.01848 57.92946 34856 ft 523 kts 91°
2026-05-07 14:05 23.01810 58.00804 34846 ft 523 kts 90°
2026-05-07 14:06 23.01831 58.08698 34842 ft 523 kts 90°
2026-05-07 14:06 23.01822 58.16616 34835 ft 524 kts 90°
2026-05-07 14:07 23.01814 58.24534 34834 ft 524 kts 90°
2026-05-07 14:07 23.01804 58.32436 34829 ft 523 kts 90°
2026-05-07 14:08 23.01815 58.40292 34825 ft 523 kts 88°
2026-05-07 14:08 23.02154 58.48202 34828 ft 524 kts 87°
2026-05-07 14:09 23.02426 58.56105 34820 ft 524 kts 88°
2026-05-07 14:09 23.02677 58.64010 34820 ft 524 kts 88°
2026-05-07 14:10 23.02942 58.71924 34813 ft 523 kts 88°
2026-05-07 14:10 23.03196 58.79826 34812 ft 524 kts 88°
2026-05-07 14:11 23.03405 58.86397 34802 ft 524 kts 88°
2026-05-07 14:11 23.03693 58.95576 34807 ft 523 kts 88°
2026-05-07 14:12 23.03929 59.03479 34800 ft 524 kts 88°
2026-05-07 14:12 23.04117 59.10061 34795 ft 524 kts 88°
2026-05-07 14:13 23.04352 59.17963 34798 ft 523 kts 88°
2026-05-07 14:13 23.04579 59.25859 34789 ft 522 kts 88°
2026-05-07 14:14 23.04803 59.33745 34787 ft 522 kts 88°
2026-05-07 14:14 23.04994 59.41626 34783 ft 522 kts 89°
2026-05-07 14:15 23.05087 59.49511 34772 ft 522 kts 89°
2026-05-07 14:15 23.05216 59.57401 34778 ft 523 kts 89°
2026-05-07 14:16 23.05336 59.65301 34778 ft 523 kts 89°
2026-05-07 14:16 23.05448 59.73153 34778 ft 523 kts 89°
2026-05-07 14:17 23.05560 59.81069 34774 ft 523 kts 89°
2026-05-07 14:17 23.05667 59.88957 34784 ft 523 kts 89°
2026-05-07 14:18 23.05761 59.96852 34784 ft 523 kts 89°
2026-05-07 14:18 23.05858 60.04753 34787 ft 523 kts 89°
2026-05-07 14:19 23.05953 60.12610 34785 ft 523 kts 89°
2026-05-07 14:19 23.06043 60.20513 34782 ft 523 kts 89°
2026-05-07 14:20 23.06130 60.28419 34782 ft 523 kts 89°
2026-05-07 14:20 23.06212 60.36312 34783 ft 523 kts 89°
2026-05-07 14:21 23.06291 60.44214 34781 ft 523 kts 89°
2026-05-07 14:21 23.06365 60.52059 34840 ft 522 kts 89°
2026-05-07 14:22 23.06436 60.59933 34982 ft 521 kts 89°
2026-05-07 14:22 23.06495 60.67788 35123 ft 519 kts 89°
2026-05-07 14:23 23.06552 60.75617 35254 ft 516 kts 89°
2026-05-07 14:23 23.06615 60.83393 35396 ft 513 kts 89°
2026-05-07 14:24 23.06670 60.91066 35558 ft 509 kts 89°
2026-05-07 14:24 23.06695 60.94870 36030 ft 497 kts 89°
2026-05-07 14:24 23.06720 60.98594 36506 ft 487 kts 89°
2026-05-07 14:24 23.06744 61.02278 36699 ft 483 kts 89°
2026-05-07 14:25 23.06767 61.05919 36754 ft 483 kts 89°
2026-05-07 14:25 23.06809 61.13225 36776 ft 483 kts 89°
2026-05-07 14:26 23.06848 61.20496 36777 ft 484 kts 89°
2026-05-07 14:26 23.06883 61.27822 36775 ft 485 kts 89°
2026-05-07 14:27 23.06916 61.35195 36079 ft 495 kts 89°
2026-05-07 14:27 23.06931 61.38981 35191 ft 505 kts 89°
2026-05-07 14:27 23.06945 61.42747 34917 ft 505 kts 89°
2026-05-07 14:28 23.06970 61.50418 34792 ft 510 kts 90°
2026-05-07 14:28 23.06975 61.58149 34778 ft 513 kts 89°
2026-05-07 14:29 23.06997 61.65931 34777 ft 516 kts 89°
2026-05-07 14:29 23.07011 61.73759 34776 ft 519 kts 89°
2026-05-07 14:30 23.07015 61.81579 34773 ft 522 kts 89°
2026-05-07 14:30 23.07020 61.89482 34777 ft 523 kts 89°
2026-05-07 14:31 23.07022 61.97394 34774 ft 524 kts 89°
2026-05-07 14:31 23.07019 62.05270 34773 ft 523 kts 90°
2026-05-07 14:32 23.07012 62.13165 34774 ft 523 kts 89°
2026-05-07 14:32 23.07002 62.21069 34775 ft 523 kts 89°
2026-05-07 14:33 23.06987 62.28983 34774 ft 523 kts 89°
2026-05-07 14:33 23.06969 62.36837 34772 ft 523 kts 89°
2026-05-07 14:34 23.06946 62.44748 34775 ft 523 kts 89°
2026-05-07 14:34 23.06920 62.52646 34775 ft 523 kts 89°
2026-05-07 14:35 23.06890 62.60536 34774 ft 523 kts 89°
2026-05-07 14:35 23.06855 62.68434 34776 ft 523 kts 89°
2026-05-07 14:36 23.06817 62.76329 34774 ft 523 kts 89°
2026-05-07 14:36 23.06775 62.84235 34775 ft 523 kts 89°
2026-05-07 14:37 23.06730 62.92091 34775 ft 523 kts 89°
2026-05-07 14:37 23.06653 63.03953 34774 ft 523 kts 89°
2026-05-07 14:38 23.06597 63.11860 34772 ft 523 kts 89°
2026-05-07 14:38 23.06537 63.19777 34771 ft 524 kts 89°
2026-05-07 14:39 23.06474 63.27638 34773 ft 524 kts 89°
2026-05-07 14:39 23.06407 63.35550 34773 ft 524 kts 89°
2026-05-07 14:40 23.06335 63.43469 34771 ft 524 kts 90°
2026-05-07 14:40 23.06259 63.51385 34771 ft 524 kts 90°
2026-05-07 14:41 23.06180 63.59253 34767 ft 524 kts 90°
2026-05-07 14:41 23.06097 63.67185 34771 ft 524 kts 90°
2026-05-07 14:42 23.06010 63.75056 34769 ft 524 kts 90°
2026-05-07 14:42 23.05918 63.82980 34771 ft 524 kts 90°
2026-05-07 14:43 23.05620 63.90886 34778 ft 525 kts 97°
2026-05-07 14:43 23.04568 63.98729 34771 ft 525 kts 96°
2026-05-07 14:44 23.03816 64.06616 34773 ft 525 kts 95°
2026-05-07 14:44 23.03021 64.14450 34775 ft 525 kts 96°
2026-05-07 14:45 23.02200 64.22330 34776 ft 525 kts 95°
2026-05-07 14:45 23.01392 64.30211 34781 ft 525 kts 96°
2026-05-07 14:46 23.00572 64.38096 34783 ft 525 kts 96°
2026-05-07 14:46 22.99756 64.45920 34782 ft 525 kts 96°
2026-05-07 14:47 22.98931 64.53791 34783 ft 525 kts 96°
2026-05-07 14:47 22.98102 64.61665 34784 ft 525 kts 96°
2026-05-07 14:48 22.97268 64.69546 34783 ft 525 kts 96°
2026-05-07 14:48 22.96431 64.77419 34782 ft 525 kts 96°
2026-05-07 14:49 22.95625 64.85236 34783 ft 524 kts 92°
2026-05-07 14:49 22.95831 64.93133 34788 ft 523 kts 86°
2026-05-07 14:50 22.95928 65.01030 34784 ft 524 kts 89°
2026-05-07 14:50 22.95922 65.08946 34787 ft 524 kts 88°
2026-05-07 14:51 22.95983 65.16856 34788 ft 524 kts 89°
2026-05-07 14:51 22.96013 65.24772 34787 ft 525 kts 89°
2026-05-07 14:52 22.96044 65.32668 34788 ft 525 kts 89°
2026-05-07 14:52 22.96073 65.40593 34786 ft 525 kts 89°
2026-05-07 14:53 22.96096 65.48526 34783 ft 526 kts 89°
2026-05-07 14:53 22.96116 65.56452 34787 ft 526 kts 89°
2026-05-07 14:54 22.96132 65.64341 34789 ft 525 kts 89°
2026-05-07 14:54 22.96144 65.72290 34791 ft 526 kts 89°
2026-05-07 14:55 22.96152 65.80229 34788 ft 526 kts 89°
2026-05-07 14:55 22.96156 65.88180 34789 ft 526 kts 89°
2026-05-07 14:56 22.96156 65.96086 34787 ft 526 kts 89°
2026-05-07 14:56 22.96152 66.04019 34788 ft 526 kts 89°
2026-05-07 14:57 22.96145 66.11969 34787 ft 526 kts 89°
2026-05-07 14:57 22.96133 66.19921 34790 ft 527 kts 89°
2026-05-07 14:58 22.96117 66.27874 34790 ft 527 kts 89°
2026-05-07 14:58 22.96101 66.34492 34795 ft 527 kts 89°
2026-05-07 14:59 22.96074 66.43745 34795 ft 528 kts 89°
2026-05-07 14:59 22.96051 66.50422 34794 ft 528 kts 89°
2026-05-07 15:00 22.96020 66.58347 34792 ft 528 kts 89°
2026-05-07 15:00 22.95985 66.66329 34787 ft 528 kts 89°
2026-05-07 15:01 22.95946 66.74308 34793 ft 529 kts 89°
2026-05-07 15:01 22.95904 66.82247 34795 ft 529 kts 89°
2026-05-07 15:02 22.95857 66.90231 34796 ft 529 kts 89°
2026-05-07 15:02 22.95805 66.98237 34800 ft 529 kts 89°
2026-05-07 15:03 22.95799 67.06235 34788 ft 529 kts 88°
2026-05-07 15:03 22.95830 67.14189 34796 ft 530 kts 89°
2026-05-07 15:04 22.95839 67.22199 34798 ft 530 kts 89°
2026-05-07 15:04 22.95849 67.30204 34805 ft 530 kts 89°
2026-05-07 15:05 22.95854 67.38204 34798 ft 530 kts 89°
2026-05-07 15:05 22.95855 67.46162 34799 ft 530 kts 89°
2026-05-07 15:06 22.95852 67.54191 34803 ft 531 kts 89°
2026-05-07 15:06 22.95845 67.62207 34802 ft 531 kts 89°
2026-05-07 15:07 22.95834 67.70228 34801 ft 531 kts 89°
2026-05-07 15:07 22.95819 67.78196 34805 ft 532 kts 89°
2026-05-07 15:08 22.95800 67.86244 34802 ft 532 kts 89°
2026-05-07 15:08 22.95787 67.94280 34805 ft 533 kts 89°
2026-05-07 15:09 22.95803 68.02332 34802 ft 533 kts 89°
2026-05-07 15:09 22.95807 68.10330 34808 ft 533 kts 89°
2026-05-07 15:10 22.95806 68.18382 34808 ft 534 kts 89°
2026-05-07 15:10 22.95803 68.26451 34807 ft 534 kts 89°
2026-05-07 15:11 22.95795 68.34521 34811 ft 534 kts 89°
2026-05-07 15:11 22.95633 68.42541 34811 ft 535 kts 94°
2026-05-07 15:12 22.95020 68.50604 34812 ft 536 kts 92°
2026-05-07 15:12 22.94591 68.58681 34811 ft 536 kts 92°
2026-05-07 15:13 22.94124 68.66746 34815 ft 536 kts 92°
2026-05-07 15:13 22.93647 68.74778 34817 ft 536 kts 92°
2026-05-07 15:14 22.93171 68.82877 34815 ft 536 kts 92°
2026-05-07 15:14 22.92688 68.90958 34816 ft 537 kts 92°
2026-05-07 15:15 22.92202 68.99047 34813 ft 537 kts 92°
2026-05-07 15:15 22.91714 69.07098 34816 ft 537 kts 92°
2026-05-07 15:16 22.91219 69.15181 34815 ft 538 kts 92°
2026-05-07 15:16 22.90720 69.23277 34815 ft 538 kts 92°
2026-05-07 15:17 22.90216 69.31375 35134 ft 529 kts 92°
2026-05-07 15:17 22.89970 69.35299 35833 ft 513 kts 92°
2026-05-07 15:17 22.89732 69.39098 36490 ft 499 kts 93°
2026-05-07 15:18 22.89497 69.42837 36723 ft 495 kts 93°
2026-05-07 15:18 22.89262 69.46568 36793 ft 495 kts 93°
2026-05-07 15:18 22.88791 69.53971 36816 ft 496 kts 93°
2026-05-07 15:19 22.88551 69.57722 36494 ft 501 kts 93°
2026-05-07 15:19 22.88306 69.61539 35596 ft 511 kts 93°
2026-05-07 15:19 22.88056 69.65413 35044 ft 514 kts 92°
2026-05-07 15:19 22.87804 69.69302 34888 ft 518 kts 92°
2026-05-07 15:20 22.87315 69.77142 34816 ft 524 kts 92°
2026-05-07 15:20 22.86869 69.85070 34806 ft 529 kts 92°
2026-05-07 15:21 22.86400 69.93083 34806 ft 534 kts 92°
2026-05-07 15:21 22.85927 70.01092 34800 ft 537 kts 92°
2026-05-07 15:22 22.85447 70.09194 34803 ft 539 kts 92°
2026-05-07 15:22 22.84961 70.17319 34800 ft 541 kts 92°
2026-05-07 15:23 22.84470 70.25453 34801 ft 541 kts 92°
2026-05-07 15:23 22.83976 70.33558 34797 ft 542 kts 92°
2026-05-07 15:24 22.83474 70.41732 34794 ft 541 kts 92°
2026-05-07 15:24 22.82970 70.49875 34799 ft 541 kts 92°
2026-05-07 15:25 22.82464 70.57984 34797 ft 542 kts 92°
2026-05-07 15:25 22.81952 70.66127 34799 ft 542 kts 92°
2026-05-07 15:26 22.81434 70.74285 34797 ft 542 kts 92°
2026-05-07 15:26 22.80913 70.82433 34798 ft 542 kts 92°
2026-05-07 15:27 22.81479 70.90490 34799 ft 534 kts 70°
2026-05-07 15:27 22.83262 70.98338 34795 ft 538 kts 79°
2026-05-07 15:28 22.84258 71.06397 34792 ft 539 kts 79°
2026-05-07 15:28 22.85484 71.14361 34788 ft 539 kts 78°
2026-05-07 15:29 22.86687 71.22415 34785 ft 540 kts 78°
2026-05-07 15:29 22.87866 71.30454 34779 ft 540 kts 78°
2026-05-07 15:30 22.89056 71.38488 34773 ft 540 kts 78°
2026-05-07 15:30 22.90237 71.46540 34770 ft 540 kts 78°
2026-05-07 15:31 22.91415 71.54588 34769 ft 541 kts 78°
2026-05-07 15:31 22.92583 71.62595 34758 ft 541 kts 78°
2026-05-07 15:32 22.93753 71.70649 34758 ft 541 kts 78°
2026-05-07 15:32 22.94923 71.78726 34749 ft 541 kts 78°
2026-05-07 15:33 22.96086 71.86786 34751 ft 541 kts 78°
2026-05-07 15:33 22.97247 71.94870 34750 ft 541 kts 78°
2026-05-07 15:34 22.98405 72.02957 34747 ft 541 kts 78°
2026-05-07 15:34 22.99551 72.10988 34748 ft 542 kts 78°
2026-05-07 15:35 23.00699 72.19065 34745 ft 542 kts 78°
2026-05-07 15:35 23.01843 72.27145 34747 ft 542 kts 78°
2026-05-07 15:36 23.02984 72.35232 34752 ft 542 kts 78°
2026-05-07 15:36 23.04123 72.43340 34745 ft 542 kts 78°
2026-05-07 15:37 23.05250 72.51387 34748 ft 542 kts 78°
2026-05-07 15:37 23.06380 72.59494 34774 ft 542 kts 78°
2026-05-07 15:38 23.07282 72.67638 34776 ft 545 kts 85°
2026-05-07 15:38 23.07505 72.75879 34771 ft 544 kts 84°
2026-05-07 15:39 23.08026 72.84038 34768 ft 544 kts 83°
2026-05-07 15:39 23.08482 72.92242 34761 ft 545 kts 84°
2026-05-07 15:40 23.08926 73.00466 34760 ft 545 kts 83°
2026-05-07 15:40 23.09381 73.08679 34762 ft 545 kts 84°
2026-05-07 15:41 23.09823 73.16901 34767 ft 545 kts 84°
2026-05-07 15:41 23.10265 73.25131 34769 ft 546 kts 84°
2026-05-07 15:42 23.10701 73.33358 34775 ft 546 kts 84°
2026-05-07 15:42 23.11134 73.41594 34770 ft 546 kts 84°
2026-05-07 15:43 23.11560 73.49782 34774 ft 546 kts 84°
2026-05-07 15:43 23.11985 73.58035 34778 ft 547 kts 84°
2026-05-07 15:44 23.12406 73.66283 34780 ft 547 kts 84°
2026-05-07 15:44 23.12753 73.73153 34781 ft 547 kts 84°
2026-05-07 15:45 23.13166 73.81418 34790 ft 547 kts 84°
2026-05-07 15:45 23.13641 73.91032 34796 ft 548 kts 84°
2026-05-07 15:46 23.14180 74.02062 34804 ft 548 kts 84°
2026-05-07 15:47 23.14578 74.10326 34806 ft 548 kts 84°
2026-05-07 15:47 23.14972 74.18600 34809 ft 548 kts 84°
2026-05-07 15:48 23.15363 74.26881 34824 ft 548 kts 84°
2026-05-07 15:48 23.15747 74.35168 34820 ft 549 kts 85°
2026-05-07 15:49 23.15875 74.43471 34825 ft 550 kts 86°
2026-05-07 15:49 23.16036 74.51767 34835 ft 549 kts 85°
2026-05-07 15:50 23.16221 74.60073 34837 ft 549 kts 86°
2026-05-07 15:50 23.16379 74.68376 34843 ft 550 kts 86°
2026-05-07 15:51 23.16542 74.76672 34851 ft 550 kts 86°
2026-05-07 15:51 23.16697 74.84925 34857 ft 550 kts 86°
2026-05-07 15:52 23.16849 74.93238 34863 ft 550 kts 86°
2026-05-07 15:52 23.16998 75.01572 34871 ft 550 kts 86°
2026-05-07 15:53 23.17141 75.09894 34886 ft 551 kts 86°
2026-05-07 15:53 23.17281 75.18221 34880 ft 551 kts 86°
2026-05-07 15:54 23.17415 75.26496 34883 ft 551 kts 86°
2026-05-07 15:54 23.17546 75.34825 34889 ft 551 kts 86°
2026-05-07 15:55 23.17672 75.43143 34890 ft 551 kts 86°
2026-05-07 15:55 23.17794 75.51473 34890 ft 551 kts 86°
2026-05-07 15:56 23.17911 75.59801 34893 ft 551 kts 86°
2026-05-07 15:56 23.18024 75.68123 34889 ft 551 kts 86°
2026-05-07 15:57 23.18133 75.76458 34896 ft 551 kts 86°
2026-05-07 15:57 23.18237 75.84730 34895 ft 551 kts 86°
2026-05-07 15:58 23.18337 75.93063 34894 ft 551 kts 86°
2026-05-07 15:58 23.18441 76.01388 34899 ft 550 kts 85°
2026-05-07 15:59 23.19129 76.09646 34896 ft 548 kts 81°
2026-05-07 15:59 23.19823 76.17918 34896 ft 549 kts 83°
2026-05-07 16:00 23.20424 76.26198 34899 ft 549 kts 82°
2026-05-07 16:00 23.21072 76.34429 34901 ft 549 kts 82°
2026-05-07 16:01 23.21699 76.42711 34900 ft 549 kts 82°
2026-05-07 16:01 23.22324 76.50978 34900 ft 549 kts 82°
2026-05-07 16:02 23.22947 76.59265 34901 ft 549 kts 83°
2026-05-07 16:02 23.23564 76.67534 34901 ft 549 kts 83°
2026-05-07 16:03 23.24174 76.75763 34901 ft 549 kts 83°
2026-05-07 16:03 23.24782 76.84045 34903 ft 549 kts 83°
2026-05-07 16:04 23.25387 76.92320 34904 ft 549 kts 83°
2026-05-07 16:04 23.25988 77.00621 34909 ft 550 kts 83°
2026-05-07 16:05 23.26585 77.08912 34911 ft 550 kts 83°
2026-05-07 16:05 23.27178 77.17216 34911 ft 550 kts 83°
2026-05-07 16:06 23.27767 77.25526 34914 ft 551 kts 83°
2026-05-07 16:06 23.28352 77.33845 34913 ft 551 kts 83°
2026-05-07 16:07 23.28057 77.42192 34912 ft 554 kts 95°
2026-05-07 16:07 23.27571 77.50496 34912 ft 553 kts 90°
2026-05-07 16:08 23.27313 77.58891 34911 ft 554 kts 91°
2026-05-07 16:08 23.26929 77.67266 34907 ft 554 kts 91°
2026-05-07 16:09 23.26582 77.75598 34905 ft 554 kts 91°
2026-05-07 16:09 23.26223 77.83980 34908 ft 555 kts 91°
2026-05-07 16:10 23.25856 77.92376 34908 ft 555 kts 91°
2026-05-07 16:10 23.25488 78.00768 34906 ft 555 kts 91°
2026-05-07 16:11 23.25115 78.09123 34902 ft 556 kts 91°
2026-05-07 16:11 23.24736 78.17532 34905 ft 556 kts 91°
2026-05-07 16:12 23.24355 78.25890 34902 ft 556 kts 92°
2026-05-07 16:12 23.23967 78.34296 34910 ft 556 kts 92°
2026-05-07 16:13 23.23574 78.42709 34911 ft 557 kts 92°
2026-05-07 16:13 23.23177 78.51120 34908 ft 557 kts 92°
2026-05-07 16:14 23.22777 78.59486 34912 ft 557 kts 92°
2026-05-07 16:14 23.22370 78.67915 34910 ft 557 kts 92°
2026-05-07 16:15 23.21973 78.76340 34909 ft 557 kts 91°
2026-05-07 16:15 23.21901 78.84760 34905 ft 557 kts 89°
2026-05-07 16:16 23.21791 78.93189 34906 ft 557 kts 90°
2026-05-07 16:16 23.21647 79.01613 34906 ft 558 kts 90°
2026-05-07 16:17 23.21524 79.10043 34905 ft 558 kts 90°
2026-05-07 16:17 23.21385 79.18471 34904 ft 558 kts 90°
2026-05-07 16:18 23.21245 79.26907 34904 ft 558 kts 90°
2026-05-07 16:18 23.21099 79.35368 34901 ft 558 kts 90°
2026-05-07 16:19 23.20950 79.43756 34904 ft 559 kts 90°
2026-05-07 16:19 23.20795 79.52216 34903 ft 559 kts 90°
2026-05-07 16:20 23.20595 79.60671 34902 ft 560 kts 92°
2026-05-07 16:20 23.20169 79.69127 34901 ft 560 kts 92°
2026-05-07 16:21 23.19828 79.77595 34901 ft 560 kts 92°
2026-05-07 16:21 23.19469 79.86066 34899 ft 561 kts 92°
2026-05-07 16:22 23.19101 79.94492 34904 ft 561 kts 92°
2026-05-07 16:22 23.18733 80.02964 34903 ft 561 kts 92°
2026-05-07 16:23 23.18330 80.11461 34903 ft 562 kts 94°
2026-05-07 16:23 23.17874 80.19900 34904 ft 562 kts 93°
2026-05-07 16:24 23.17443 80.28376 34906 ft 562 kts 93°
2026-05-07 16:24 23.16998 80.36862 34905 ft 562 kts 94°
2026-05-07 16:25 23.16548 80.45347 34910 ft 562 kts 94°
2026-05-07 16:25 23.16095 80.53853 34910 ft 562 kts 94°
2026-05-07 16:26 23.15639 80.62291 34914 ft 563 kts 94°
2026-05-07 16:26 23.15176 80.70790 34915 ft 563 kts 94°
2026-05-07 16:27 23.14707 80.79290 34916 ft 563 kts 94°
2026-05-07 16:27 23.14241 80.87785 34916 ft 564 kts 94°
2026-05-07 16:28 23.13782 80.96296 34914 ft 564 kts 94°
2026-05-07 16:28 23.13316 81.04766 34912 ft 564 kts 94°
2026-05-07 16:29 23.12843 81.13282 34911 ft 564 kts 94°
2026-05-07 16:29 23.12367 81.21791 34908 ft 563 kts 94°
2026-05-07 16:30 23.11887 81.30273 34910 ft 563 kts 94°
2026-05-07 16:30 23.11484 81.37331 34903 ft 563 kts 94°
2026-05-07 16:31 23.10996 81.45817 34902 ft 563 kts 95°
2026-05-07 16:31 23.10506 81.54255 34900 ft 563 kts 95°
2026-05-07 16:32 23.10005 81.62796 34899 ft 563 kts 95°
2026-05-07 16:32 23.09507 81.71227 34893 ft 563 kts 95°
2026-05-07 16:33 23.08999 81.79727 34897 ft 563 kts 95°
2026-05-07 16:33 23.08487 81.88226 34890 ft 563 kts 95°
2026-05-07 16:34 23.07972 81.96703 34886 ft 563 kts 95°
2026-05-07 16:34 23.07451 82.05196 34887 ft 563 kts 95°
2026-05-07 16:35 23.06925 82.13696 34882 ft 563 kts 95°
2026-05-07 16:35 23.06451 82.22186 34878 ft 563 kts 94°
2026-05-07 16:36 23.06131 82.30688 34877 ft 563 kts 94°
2026-05-07 16:36 23.05751 82.39150 34877 ft 563 kts 94°
2026-05-07 16:37 23.05376 82.47648 34884 ft 564 kts 94°
2026-05-07 16:37 23.04998 82.56165 34886 ft 564 kts 94°
2026-05-07 16:38 23.04611 82.64684 34887 ft 564 kts 94°
2026-05-07 16:38 23.04225 82.73147 34888 ft 565 kts 94°
2026-05-07 16:39 23.03831 82.81661 34890 ft 565 kts 94°
2026-05-07 16:39 23.03432 82.90185 34894 ft 565 kts 95°
2026-05-07 16:40 23.03029 82.98711 34899 ft 565 kts 95°
2026-05-07 16:40 23.02621 83.07238 34903 ft 566 kts 95°
2026-05-07 16:41 23.02208 83.15766 34908 ft 566 kts 95°
2026-05-07 16:41 23.01792 83.24269 34915 ft 566 kts 95°
2026-05-07 16:42 23.01369 83.32804 34920 ft 566 kts 95°
2026-05-07 16:42 23.00942 83.41343 34925 ft 566 kts 95°
2026-05-07 16:43 23.00510 83.49886 34934 ft 566 kts 95°
2026-05-07 16:43 23.00074 83.58413 34940 ft 566 kts 95°
2026-05-07 16:44 22.99633 83.66945 34945 ft 566 kts 95°
2026-05-07 16:44 22.99188 83.75485 34948 ft 566 kts 95°
2026-05-07 16:45 22.98738 83.84007 34953 ft 565 kts 95°
2026-05-07 16:45 22.98285 83.92519 34961 ft 564 kts 95°
2026-05-07 16:46 22.97831 84.00960 34961 ft 562 kts 95°
2026-05-07 16:46 22.97371 84.09424 34962 ft 562 kts 95°
2026-05-07 16:47 22.96842 84.17893 34963 ft 561 kts 97°
2026-05-07 16:47 22.96165 84.26338 34968 ft 562 kts 97°
2026-05-07 16:48 22.95575 84.34799 34974 ft 562 kts 97°
2026-05-07 16:48 22.94958 84.43201 34975 ft 562 kts 97°
2026-05-07 16:49 22.94334 84.51660 34980 ft 562 kts 97°
2026-05-07 16:49 22.93709 84.60100 34977 ft 562 kts 97°
2026-05-07 16:50 22.93076 84.68566 34987 ft 562 kts 97°
2026-05-07 16:50 22.92442 84.77011 34987 ft 562 kts 97°
2026-05-07 16:51 22.91801 84.85468 34989 ft 563 kts 97°
2026-05-07 16:51 22.91154 84.93949 34990 ft 563 kts 97°
2026-05-07 16:52 22.90507 85.02377 34992 ft 564 kts 97°
2026-05-07 16:52 22.89852 85.10846 34996 ft 564 kts 97°
2026-05-07 16:53 22.89179 85.19382 34994 ft 564 kts 97°
2026-05-07 16:53 22.88522 85.27820 34999 ft 565 kts 97°
2026-05-07 16:54 22.87866 85.36307 34998 ft 565 kts 97°
2026-05-07 16:54 22.87199 85.44794 34993 ft 565 kts 97°
2026-05-07 16:55 22.86529 85.53301 34993 ft 565 kts 97°
2026-05-07 16:55 22.85856 85.61781 34991 ft 564 kts 98°
2026-05-07 16:56 22.85178 85.70250 34984 ft 564 kts 98°
2026-05-07 16:56 22.84157 85.82920 34976 ft 564 kts 98°
2026-05-07 16:57 22.83468 85.91392 34968 ft 564 kts 98°
2026-05-07 16:57 22.82778 85.99834 34963 ft 564 kts 98°
2026-05-07 16:58 22.82081 86.08298 34959 ft 563 kts 98°
2026-05-07 16:58 22.81379 86.16763 34958 ft 563 kts 98°
2026-05-07 16:59 22.80854 86.25250 34968 ft 564 kts 95°
2026-05-07 16:59 22.80454 86.33740 34968 ft 564 kts 96°
2026-05-07 17:00 22.79967 86.42225 34964 ft 564 kts 96°
2026-05-07 17:00 22.79509 86.50704 34965 ft 564 kts 96°
2026-05-07 17:01 22.79039 86.59178 34963 ft 564 kts 96°
2026-05-07 17:01 22.78563 86.67669 34961 ft 564 kts 96°
2026-05-07 17:02 22.78088 86.76097 34959 ft 563 kts 96°
2026-05-07 17:02 22.77604 86.84569 34955 ft 563 kts 96°
2026-05-07 17:03 22.77117 86.93039 34950 ft 563 kts 96°
2026-05-07 17:03 22.76626 87.01500 34952 ft 563 kts 96°
2026-05-07 17:04 22.76129 87.09968 34952 ft 563 kts 96°
2026-05-07 17:04 22.75629 87.18428 34947 ft 562 kts 96°
2026-05-07 17:05 22.75125 87.26868 34943 ft 562 kts 96°
2026-05-07 17:05 22.74617 87.35318 34937 ft 561 kts 96°
2026-05-07 17:06 22.74105 87.43752 34940 ft 561 kts 96°
2026-05-07 17:06 22.73591 87.52138 34935 ft 560 kts 96°
2026-05-07 17:07 22.73070 87.60570 34931 ft 560 kts 97°
2026-05-07 17:07 22.72545 87.69001 34929 ft 560 kts 97°
2026-05-07 17:08 22.72015 87.77429 34926 ft 560 kts 97°
2026-05-07 17:08 22.71481 87.85853 34924 ft 560 kts 97°
2026-05-07 17:09 22.70946 87.94228 34921 ft 560 kts 97°
2026-05-07 17:09 22.70403 88.02656 34920 ft 560 kts 97°
2026-05-07 17:10 22.69856 88.11072 34914 ft 560 kts 97°
2026-05-07 17:10 22.69309 88.19432 34914 ft 559 kts 97°
2026-05-07 17:11 22.68754 88.27830 34908 ft 559 kts 97°
2026-05-07 17:11 22.68196 88.36229 34905 ft 559 kts 97°
2026-05-07 17:12 22.67633 88.44618 34905 ft 558 kts 97°
2026-05-07 17:12 22.66356 88.52834 34904 ft 552 kts 107°
2026-05-07 17:13 22.64857 88.60994 34907 ft 554 kts 103°
2026-05-07 17:13 22.63581 88.69212 34908 ft 553 kts 104°
2026-05-07 17:14 22.62198 88.77357 34904 ft 552 kts 104°
2026-05-07 17:14 22.60841 88.85533 34909 ft 552 kts 104°
2026-05-07 17:15 22.59474 88.93714 34910 ft 551 kts 104°
2026-05-07 17:15 22.58601 89.00568 34911 ft 554 kts 98°
2026-05-07 17:16 22.57830 89.08859 34904 ft 554 kts 100°
2026-05-07 17:16 22.56719 89.18475 34901 ft 554 kts 100°
2026-05-07 17:17 22.55969 89.25362 34900 ft 554 kts 100°
2026-05-07 17:17 22.55051 89.33643 34905 ft 554 kts 100°
2026-05-07 17:18 22.54124 89.41920 34908 ft 554 kts 100°
2026-05-07 17:18 22.53197 89.50204 34909 ft 554 kts 100°
2026-05-07 17:19 22.52263 89.58486 34907 ft 554 kts 101°
2026-05-07 17:19 22.51325 89.66770 34907 ft 554 kts 101°
2026-05-07 17:20 22.50389 89.74999 34908 ft 554 kts 101°
2026-05-07 17:20 22.49444 89.83273 34912 ft 554 kts 101°
2026-05-07 17:21 22.48495 89.91540 34910 ft 554 kts 101°
2026-05-07 17:21 22.47542 89.99800 34906 ft 553 kts 101°
2026-05-07 17:22 22.46584 90.08070 34906 ft 553 kts 101°
2026-05-07 17:22 22.45629 90.16278 34907 ft 554 kts 101°
2026-05-07 17:23 22.44662 90.24547 34902 ft 554 kts 101°
2026-05-07 17:23 22.43692 90.32813 34903 ft 555 kts 101°
2026-05-07 17:24 22.42716 90.41083 34908 ft 555 kts 101°
2026-05-07 17:24 22.41736 90.49359 34912 ft 555 kts 101°
2026-05-07 17:25 22.40750 90.57642 34902 ft 555 kts 101°
2026-05-07 17:25 22.39767 90.65866 34906 ft 555 kts 101°
2026-05-07 17:26 22.38775 90.74132 34905 ft 555 kts 101°
2026-05-07 17:26 22.37779 90.82392 34905 ft 554 kts 101°
2026-05-07 17:27 22.36778 90.90665 34902 ft 554 kts 101°
2026-05-07 17:27 22.35775 90.98911 34901 ft 554 kts 101°
2026-05-07 17:28 22.34766 91.07166 34894 ft 554 kts 101°
2026-05-07 17:28 22.33761 91.15365 34891 ft 554 kts 101°
2026-05-07 17:29 22.32744 91.23614 34886 ft 554 kts 101°
2026-05-07 17:29 22.31724 91.31860 34882 ft 554 kts 101°
2026-05-07 17:30 22.30700 91.40103 34880 ft 553 kts 101°
2026-05-07 17:30 22.29732 91.48358 34881 ft 554 kts 100°
2026-05-07 17:31 22.28805 91.56605 34889 ft 553 kts 100°
2026-05-07 17:31 22.27856 91.64809 34897 ft 553 kts 100°
2026-05-07 17:32 22.26906 91.73049 34907 ft 553 kts 100°
2026-05-07 17:32 22.25950 91.81298 34909 ft 553 kts 100°
2026-05-07 17:33 22.25921 91.89592 34916 ft 559 kts 77°
2026-05-07 17:33 22.28081 91.97682 34908 ft 559 kts 82°
2026-05-07 17:34 22.28970 92.05959 34889 ft 559 kts 85°
2026-05-07 17:34 22.30121 92.14283 34876 ft 560 kts 82°
2026-05-07 17:35 22.31300 92.22599 34871 ft 560 kts 84°
2026-05-07 17:35 22.32413 92.30938 34882 ft 560 kts 83°
2026-05-07 17:36 22.33567 92.39251 34890 ft 559 kts 83°
2026-05-07 17:36 22.34706 92.47557 34889 ft 559 kts 83°
2026-05-07 17:37 22.35844 92.55887 34893 ft 559 kts 83°
2026-05-07 17:37 22.36968 92.64139 34901 ft 558 kts 83°
2026-05-07 17:38 22.38096 92.72449 34905 ft 559 kts 83°
2026-05-07 17:38 22.39215 92.80782 34923 ft 560 kts 83°
2026-05-07 17:39 22.40337 92.89110 34943 ft 561 kts 83°
2026-05-07 17:39 22.41462 92.97479 34948 ft 562 kts 83°
2026-05-07 17:40 22.42578 93.05833 34964 ft 561 kts 83°
2026-05-07 17:40 22.43694 93.14199 34972 ft 562 kts 83°
2026-05-07 17:41 22.44791 93.22490 34990 ft 561 kts 83°
2026-05-07 17:41 22.45898 93.30846 35003 ft 561 kts 83°
2026-05-07 17:42 22.46996 93.39196 35004 ft 559 kts 83°
2026-05-07 17:42 22.48088 93.47537 35009 ft 560 kts 83°
2026-05-07 17:43 22.49179 93.55884 35006 ft 560 kts 83°
2026-05-07 17:43 22.50261 93.64225 34990 ft 561 kts 83°
2026-05-07 17:44 22.51345 93.72579 34979 ft 561 kts 84°
2026-05-07 17:44 22.52422 93.80947 34965 ft 563 kts 84°
2026-05-07 17:45 22.53500 93.89344 34958 ft 563 kts 83°
2026-05-07 17:45 22.54566 93.97669 34938 ft 561 kts 84°
2026-05-07 17:46 22.55630 94.06036 34928 ft 561 kts 83°
2026-05-07 17:46 22.56691 94.14404 34919 ft 560 kts 84°
2026-05-07 17:47 22.57745 94.22758 34915 ft 560 kts 83°
2026-05-07 17:47 22.58794 94.31098 34912 ft 559 kts 84°
2026-05-07 17:48 22.59839 94.39453 34908 ft 560 kts 84°
2026-05-07 17:48 22.60880 94.47802 34907 ft 560 kts 84°
2026-05-07 17:49 22.61911 94.56112 34897 ft 560 kts 84°
2026-05-07 17:49 22.62946 94.64485 34889 ft 560 kts 84°
2026-05-07 17:50 22.63974 94.72843 34889 ft 560 kts 84°
2026-05-07 17:50 22.65001 94.81226 34887 ft 560 kts 84°
2026-05-07 17:51 22.66013 94.89529 34881 ft 559 kts 84°
2026-05-07 17:51 22.67027 94.97877 34882 ft 559 kts 84°
2026-05-07 17:52 22.68037 95.06235 34879 ft 559 kts 84°
2026-05-07 17:52 22.69044 95.14601 34882 ft 559 kts 84°
2026-05-07 17:53 22.70046 95.22968 34874 ft 559 kts 84°
2026-05-07 17:53 22.71036 95.31267 34873 ft 559 kts 84°
2026-05-07 17:54 22.72029 95.39635 34877 ft 559 kts 84°
2026-05-07 17:54 22.73020 95.48015 34873 ft 559 kts 84°
2026-05-07 17:55 22.74004 95.56377 34870 ft 559 kts 84°
2026-05-07 17:55 22.74983 95.64746 34872 ft 559 kts 84°
2026-05-07 17:56 22.75953 95.73064 34871 ft 559 kts 84°
2026-05-07 17:56 22.76924 95.81429 34874 ft 559 kts 84°
2026-05-07 17:57 22.77727 95.88374 34872 ft 559 kts 84°
2026-05-07 17:57 22.78851 95.98148 34885 ft 558 kts 84°
2026-05-07 17:58 22.79807 96.06510 34893 ft 559 kts 84°
2026-05-07 17:58 22.80754 96.14821 34903 ft 559 kts 84°
2026-05-07 17:59 22.81701 96.23178 34913 ft 558 kts 84°
2026-05-07 17:59 22.82646 96.31546 34925 ft 558 kts 84°
2026-05-07 18:00 22.83584 96.39908 34926 ft 559 kts 84°
2026-05-07 18:00 22.84514 96.48230 34939 ft 559 kts 84°
2026-05-07 18:01 22.85445 96.56598 34947 ft 558 kts 84°
2026-05-07 18:01 22.86370 96.64956 34957 ft 558 kts 84°
2026-05-07 18:02 22.87595 96.76086 34960 ft 557 kts 84°
2026-05-07 18:03 22.88656 96.85786 34959 ft 557 kts 84°
2026-05-07 18:03 22.89416 96.92768 34963 ft 557 kts 84°
2026-05-07 18:04 22.90320 97.01113 34965 ft 557 kts 84°
2026-05-07 18:04 22.91216 97.09423 34980 ft 556 kts 84°
2026-05-07 18:05 22.92111 97.17758 34961 ft 556 kts 84°
2026-05-07 18:05 22.93003 97.26123 34968 ft 558 kts 84°
2026-05-07 18:06 22.93890 97.34472 34972 ft 557 kts 84°
2026-05-07 18:06 22.94774 97.42841 34957 ft 558 kts 84°
2026-05-07 18:07 22.95648 97.51150 34951 ft 557 kts 84°
2026-05-07 18:07 22.96521 97.59500 34949 ft 556 kts 84°
2026-05-07 18:08 22.97388 97.67834 34946 ft 555 kts 84°
2026-05-07 18:08 22.98252 97.76160 34949 ft 555 kts 84°
2026-05-07 18:08 22.99108 97.80249 34956 ft 555 kts 68°
2026-05-07 18:09 23.00721 97.83987 34952 ft 554 kts 60°
2026-05-07 18:09 23.03838 97.91656 34961 ft 556 kts 71°
2026-05-07 18:10 23.06326 97.99616 34968 ft 557 kts 69°
2026-05-07 18:10 23.09093 98.07489 34972 ft 557 kts 69°
2026-05-07 18:11 23.11775 98.15395 34976 ft 557 kts 69°
2026-05-07 18:11 23.14442 98.23243 34974 ft 556 kts 69°
2026-05-07 18:12 23.17126 98.31133 34975 ft 557 kts 69°
2026-05-07 18:12 23.19802 98.39028 34980 ft 557 kts 69°
2026-05-07 18:13 23.22480 98.46944 34980 ft 558 kts 69°
2026-05-07 18:13 23.25158 98.54874 34978 ft 557 kts 69°
2026-05-07 18:14 23.27814 98.62753 34978 ft 557 kts 69°
2026-05-07 18:14 23.30477 98.70666 34979 ft 557 kts 69°
2026-05-07 18:15 23.33143 98.78606 34983 ft 557 kts 69°
2026-05-07 18:15 23.35802 98.86536 34984 ft 557 kts 69°
2026-05-07 18:16 23.38417 98.94410 34997 ft 557 kts 70°
2026-05-07 18:16 23.40876 99.02432 34983 ft 558 kts 71°
2026-05-07 18:17 23.43400 99.10437 35009 ft 558 kts 70°
2026-05-07 18:17 23.45911 99.18434 35011 ft 559 kts 71°
2026-05-07 18:18 23.48401 99.26414 35016 ft 560 kts 70°
2026-05-07 18:18 23.50908 99.34436 35018 ft 560 kts 71°
2026-05-07 18:19 23.53429 99.42481 35008 ft 559 kts 67°
2026-05-07 18:19 23.55214 99.46225 35024 ft 555 kts 53°
2026-05-07 18:19 23.57400 99.49638 35026 ft 554 kts 53°
2026-05-07 18:20 23.61339 99.56886 35022 ft 556 kts 61°
2026-05-07 18:20 23.65064 99.64289 35017 ft 557 kts 58°
2026-05-07 18:21 23.68952 99.71640 35020 ft 558 kts 58°
2026-05-07 18:21 23.72762 99.79009 35036 ft 557 kts 59°
2026-05-07 18:22 23.76561 99.86326 35030 ft 556 kts 59°
2026-05-07 18:22 23.80372 99.93679 35041 ft 557 kts 59°
2026-05-07 18:23 23.84180 100.01043 35042 ft 556 kts 59°
2026-05-07 18:23 23.87981 100.08399 35030 ft 556 kts 59°
2026-05-07 18:24 23.91776 100.15759 35034 ft 557 kts 59°
2026-05-07 18:24 23.95580 100.23146 35035 ft 557 kts 59°
2026-05-07 18:25 23.99382 100.30539 35041 ft 559 kts 59°
2026-05-07 18:25 24.03191 100.37960 35051 ft 559 kts 59°
2026-05-07 18:26 24.06966 100.45323 35057 ft 558 kts 59°
2026-05-07 18:26 24.10759 100.52737 35054 ft 558 kts 59°
2026-05-07 18:27 24.14529 100.60184 35066 ft 558 kts 60°
2026-05-07 18:27 24.18238 100.67646 35055 ft 558 kts 59°
2026-05-07 18:28 24.21989 100.75100 35072 ft 558 kts 59°
2026-05-07 18:28 24.25718 100.82564 35082 ft 560 kts 59°
2026-05-07 18:29 24.29465 100.90063 35086 ft 561 kts 59°
2026-05-07 18:29 24.33206 100.97566 35089 ft 561 kts 59°
2026-05-07 18:30 24.36918 101.05020 35097 ft 559 kts 59°
2026-05-07 18:30 24.40641 101.12510 35101 ft 558 kts 59°
2026-05-07 18:31 24.44355 101.19990 35102 ft 558 kts 59°
2026-05-07 18:31 24.48073 101.27493 35110 ft 560 kts 59°
2026-05-07 18:32 24.51786 101.34997 35105 ft 558 kts 59°
2026-05-07 18:32 24.55493 101.42503 35113 ft 559 kts 59°
2026-05-07 18:33 24.59200 101.50017 35110 ft 558 kts 59°
2026-05-07 18:33 24.62880 101.57493 35123 ft 558 kts 60°
2026-05-07 18:34 24.66509 101.65048 35131 ft 558 kts 60°
2026-05-07 18:34 24.70155 101.72590 35138 ft 558 kts 60°
2026-05-07 18:35 24.73795 101.80124 35147 ft 557 kts 60°
2026-05-07 18:35 24.77420 101.87653 35157 ft 557 kts 60°
2026-05-07 18:36 24.81043 101.95183 35163 ft 557 kts 60°
2026-05-07 18:36 24.84636 102.02665 35176 ft 556 kts 60°
2026-05-07 18:37 24.88252 102.10205 35192 ft 557 kts 60°
2026-05-07 18:37 24.91884 102.17793 35205 ft 558 kts 60°
2026-05-07 18:38 24.95480 102.25316 35214 ft 558 kts 60°
2026-05-07 18:38 24.99088 102.32880 35232 ft 557 kts 60°
2026-05-07 18:39 25.02693 102.40446 35254 ft 557 kts 60°
2026-05-07 18:39 25.06297 102.48026 35261 ft 556 kts 60°
2026-05-07 18:40 25.09653 102.55669 35274 ft 559 kts 73°
2026-05-07 18:40 25.10397 102.59858 35285 ft 559 kts 88°
2026-05-07 18:40 25.10225 102.64129 35296 ft 556 kts 103°
2026-05-07 18:40 25.09150 102.68200 35302 ft 550 kts 118°
2026-05-07 18:41 25.07244 102.71824 35309 ft 541 kts 133°
2026-05-07 18:41 25.04653 102.74764 35307 ft 529 kts 148°
2026-05-07 18:41 25.01558 102.76872 35306 ft 517 kts 161°
2026-05-07 18:42 24.95077 102.80148 35302 ft 524 kts 150°
2026-05-07 18:42 24.92278 102.82786 35302 ft 535 kts 135°
2026-05-07 18:42 24.90114 102.86154 35300 ft 545 kts 120°
2026-05-07 18:42 24.88731 102.90055 35298 ft 552 kts 105°
2026-05-07 18:43 24.88225 102.94263 35298 ft 555 kts 91°
2026-05-07 18:43 24.87981 102.98490 35299 ft 553 kts 103°
2026-05-07 18:43 24.86900 103.02535 35296 ft 548 kts 118°
2026-05-07 18:43 24.85004 103.06121 35287 ft 539 kts 132°
2026-05-07 18:44 24.82767 103.09442 35274 ft 541 kts 127°
2026-05-07 18:44 24.79432 103.16938 35262 ft 548 kts 115°
2026-05-07 18:45 24.76280 103.24471 35255 ft 544 kts 120°
2026-05-07 18:45 24.72908 103.31917 35250 ft 543 kts 119°
2026-05-07 18:46 24.69632 103.39421 35245 ft 543 kts 119°
2026-05-07 18:46 24.66330 103.46883 35238 ft 543 kts 119°
2026-05-07 18:47 24.63024 103.54351 35232 ft 543 kts 119°
2026-05-07 18:47 24.59713 103.61827 35229 ft 543 kts 119°
2026-05-07 18:48 24.56394 103.69301 35218 ft 543 kts 119°
2026-05-07 18:48 24.53176 103.76746 35208 ft 545 kts 111°
2026-05-07 18:48 24.52289 103.80812 35213 ft 550 kts 98°
2026-05-07 18:49 24.51862 103.84989 35206 ft 550 kts 99°
2026-05-07 18:49 24.50221 103.93172 35198 ft 548 kts 108°
2026-05-07 18:50 24.48367 104.01297 35188 ft 548 kts 104°
2026-05-07 18:50 24.46972 104.08092 35185 ft 548 kts 105°
2026-05-07 18:51 24.45223 104.16180 35165 ft 548 kts 105°
2026-05-07 18:51 24.43473 104.24315 35152 ft 548 kts 105°
2026-05-07 18:52 24.41722 104.32455 35143 ft 547 kts 105°
2026-05-07 18:52 24.39959 104.40597 35128 ft 548 kts 105°
2026-05-07 18:53 24.38196 104.48734 35121 ft 547 kts 105°
2026-05-07 18:53 24.36433 104.56844 35109 ft 547 kts 105°
2026-05-07 18:54 24.34669 104.64942 35109 ft 546 kts 105°
2026-05-07 18:54 24.32897 104.73047 35090 ft 546 kts 105°
2026-05-07 18:55 24.31132 104.81103 35083 ft 547 kts 105°
2026-05-07 18:55 24.29352 104.89204 35083 ft 546 kts 105°
2026-05-07 18:56 24.27566 104.97308 35064 ft 547 kts 105°
2026-05-07 18:56 24.25775 105.05416 35061 ft 546 kts 105°
2026-05-07 18:57 24.23983 105.13506 35058 ft 546 kts 105°
2026-05-07 18:57 24.22197 105.21545 35052 ft 545 kts 105°
2026-05-07 18:58 24.20254 105.29559 35066 ft 544 kts 107°
2026-05-07 18:58 24.18285 105.37585 35060 ft 545 kts 107°
2026-05-07 18:58 24.16946 105.41440 35060 ft 540 kts 122°
2026-05-07 18:59 24.14870 105.44767 35045 ft 533 kts 134°
2026-05-07 18:59 24.12697 105.48075 35053 ft 539 kts 120°
2026-05-07 18:59 24.11281 105.51889 35036 ft 545 kts 105°
2026-05-07 18:59 24.10743 105.56016 35033 ft 548 kts 90°
2026-05-07 19:00 24.11082 105.60171 35032 ft 549 kts 81°
2026-05-07 19:00 24.11217 105.64339 35039 ft 549 kts 97°
2026-05-07 19:00 24.10445 105.68416 35042 ft 547 kts 112°
2026-05-07 19:00 24.08837 105.72155 35031 ft 542 kts 123°
2026-05-07 19:01 24.07224 105.75902 35030 ft 546 kts 109°
2026-05-07 19:01 24.06414 105.79972 35032 ft 549 kts 96°
2026-05-07 19:01 24.06035 105.84119 35026 ft 549 kts 97°
2026-05-07 19:02 24.04694 105.92268 35008 ft 546 kts 104°
2026-05-07 19:02 24.03140 106.00420 35006 ft 547 kts 102°
2026-05-07 19:03 24.01730 106.08603 35015 ft 547 kts 102°
2026-05-07 19:03 24.00256 106.16761 35006 ft 547 kts 102°
2026-05-07 19:04 23.98792 106.24931 35002 ft 548 kts 102°
2026-05-07 19:04 23.97318 106.33124 34998 ft 548 kts 102°
2026-05-07 19:05 23.95842 106.41287 34993 ft 547 kts 102°
2026-05-07 19:05 23.94363 106.49458 34999 ft 547 kts 102°
2026-05-07 19:06 23.92881 106.57612 34996 ft 546 kts 102°
2026-05-07 19:06 23.91702 106.69935 34994 ft 548 kts 91°
2026-05-07 19:07 23.91221 106.78249 34988 ft 548 kts 96°
2026-05-07 19:07 23.90593 106.86577 34995 ft 549 kts 94°
2026-05-07 19:08 23.90056 106.94864 34989 ft 548 kts 95°
2026-05-07 19:08 23.89476 107.03170 34988 ft 548 kts 95°
2026-05-07 19:09 23.88899 107.11490 34979 ft 549 kts 95°
2026-05-07 19:09 23.88318 107.19818 34988 ft 549 kts 95°
2026-05-07 19:10 23.87734 107.28093 34980 ft 550 kts 95°
2026-05-07 19:10 23.87141 107.36433 34981 ft 550 kts 95°
2026-05-07 19:11 23.86545 107.44762 34984 ft 549 kts 95°
2026-05-07 19:11 23.85946 107.53074 34987 ft 548 kts 95°
2026-05-07 19:12 23.85343 107.61370 34984 ft 548 kts 95°
2026-05-07 19:12 23.84735 107.69679 34986 ft 549 kts 95°
2026-05-07 19:13 23.84123 107.77984 34984 ft 547 kts 95°
2026-05-07 19:13 23.83508 107.86274 34994 ft 548 kts 95°
2026-05-07 19:14 23.83089 107.94552 34990 ft 548 kts 92°
2026-05-07 19:14 23.82695 108.02847 34989 ft 547 kts 94°
2026-05-07 19:15 23.82256 108.11164 34990 ft 547 kts 93°
2026-05-07 19:15 23.81827 108.19453 34994 ft 547 kts 94°
2026-05-07 19:16 23.81354 108.27739 34996 ft 546 kts 94°
2026-05-07 19:16 23.80892 108.36017 34998 ft 546 kts 94°
2026-05-07 19:17 23.80427 108.44266 34998 ft 546 kts 94°
2026-05-07 19:17 23.79953 108.52555 34999 ft 546 kts 94°
2026-05-07 19:18 23.79476 108.60826 34999 ft 546 kts 94°
2026-05-07 19:18 23.78997 108.69063 34989 ft 546 kts 94°
2026-05-07 19:19 23.78511 108.77350 34989 ft 546 kts 94°
2026-05-07 19:19 23.78021 108.85618 34989 ft 546 kts 94°
2026-05-07 19:20 23.77525 108.93908 34984 ft 546 kts 94°
2026-05-07 19:20 23.77030 109.02123 34981 ft 546 kts 94°
2026-05-07 19:21 23.76526 109.10402 34981 ft 546 kts 94°
2026-05-07 19:21 23.75779 109.18645 34981 ft 546 kts 104°
2026-05-07 19:22 23.73757 109.26619 34972 ft 546 kts 104°
2026-05-07 19:22 23.72187 109.34741 34966 ft 546 kts 102°
2026-05-07 19:23 23.70563 109.42814 34969 ft 546 kts 103°
2026-05-07 19:23 23.68896 109.50895 34971 ft 546 kts 103°
2026-05-07 19:24 23.67256 109.58980 34964 ft 546 kts 103°
2026-05-07 19:24 23.65595 109.67073 34965 ft 546 kts 103°
2026-05-07 19:25 23.63935 109.75159 34962 ft 546 kts 103°
2026-05-07 19:25 23.62269 109.83252 34963 ft 547 kts 103°
2026-05-07 19:26 23.60605 109.91310 34955 ft 547 kts 103°
2026-05-07 19:26 23.58928 109.99408 34957 ft 547 kts 103°
2026-05-07 19:27 23.57248 110.07499 34962 ft 547 kts 103°
2026-05-07 19:27 23.55563 110.15591 34957 ft 547 kts 103°
2026-05-07 19:28 23.53878 110.23664 34951 ft 546 kts 103°
2026-05-07 19:28 23.52195 110.31699 34945 ft 546 kts 103°
2026-05-07 19:29 23.50515 110.39710 35585 ft 534 kts 103°
2026-05-07 19:29 23.49703 110.43664 35370 ft 536 kts 102°
2026-05-07 19:29 23.48900 110.47657 35066 ft 540 kts 102°
2026-05-07 19:30 23.47273 110.55693 34963 ft 547 kts 103°
2026-05-07 19:30 23.45614 110.63802 34951 ft 549 kts 102°
2026-05-07 19:31 23.43964 110.71873 34947 ft 548 kts 103°
2026-05-07 19:31 23.42261 110.79962 34940 ft 546 kts 103°
2026-05-07 19:32 23.40555 110.88023 34940 ft 545 kts 103°
2026-05-07 19:32 23.38857 110.96071 34948 ft 545 kts 103°
2026-05-07 19:33 23.37164 111.04052 34947 ft 545 kts 103°
2026-05-07 19:33 23.35451 111.12111 34940 ft 546 kts 103°
2026-05-07 19:34 23.33757 111.20179 34944 ft 546 kts 102°
2026-05-07 19:34 23.32131 111.28250 34943 ft 546 kts 102°
2026-05-07 19:35 23.30487 111.36254 34941 ft 546 kts 103°
2026-05-07 19:35 23.28830 111.44320 34943 ft 546 kts 103°
2026-05-07 19:36 23.27173 111.52371 34944 ft 546 kts 103°
2026-05-07 19:36 23.25474 111.60413 34944 ft 546 kts 103°
2026-05-07 19:37 23.23764 111.68475 34931 ft 546 kts 103°
2026-05-07 19:37 23.22349 111.75167 34942 ft 546 kts 103°
2026-05-07 19:38 23.20640 111.83200 34944 ft 546 kts 103°
2026-05-07 19:38 23.18698 111.92537 34725 ft 541 kts 102°
2026-05-07 19:39 23.18142 111.95234 34385 ft 540 kts 103°
2026-05-07 19:39 23.17325 111.99164 33657 ft 540 kts 103°
2026-05-07 19:39 23.16492 112.03151 32844 ft 539 kts 103°
2026-05-07 19:39 23.15663 112.07113 32019 ft 539 kts 103°
2026-05-07 19:40 23.14834 112.11081 31226 ft 537 kts 103°
2026-05-07 19:40 23.14005 112.15049 30438 ft 536 kts 102°
2026-05-07 19:40 23.13180 112.18983 30109 ft 535 kts 102°
2026-05-07 19:40 23.12349 112.22947 29988 ft 540 kts 102°
2026-05-07 19:41 23.10679 112.30895 29938 ft 543 kts 102°
2026-05-07 19:41 23.08991 112.38904 29932 ft 542 kts 102°
2026-05-07 19:42 23.07311 112.46852 29939 ft 536 kts 102°
2026-05-07 19:42 23.06270 112.54807 29934 ft 531 kts 89°
2026-05-07 19:43 23.06061 112.62795 29929 ft 532 kts 94°
2026-05-07 19:43 23.05416 112.70813 29932 ft 533 kts 94°
2026-05-07 19:44 23.04886 112.78845 29931 ft 533 kts 92°
2026-05-07 19:44 23.04345 112.86834 29931 ft 533 kts 93°
2026-05-07 19:45 23.03785 112.94862 29870 ft 531 kts 93°
2026-05-07 19:45 23.03511 112.98836 29475 ft 526 kts 93°
2026-05-07 19:45 23.03236 113.02791 28783 ft 522 kts 93°
2026-05-07 19:46 23.02961 113.06711 28149 ft 513 kts 93°
2026-05-07 19:46 23.02695 113.10485 26930 ft 505 kts 93°
2026-05-07 19:46 23.02427 113.14293 26000 ft 504 kts 93°
2026-05-07 19:46 23.02161 113.18057 25401 ft 497 kts 93°
2026-05-07 19:47 23.01756 113.21766 25087 ft 498 kts 103°
2026-05-07 19:47 23.00524 113.25309 24987 ft 505 kts 119°
2026-05-07 19:47 22.98462 113.28395 24945 ft 505 kts 135°
2026-05-07 19:47 22.95753 113.30764 24936 ft 500 kts 152°
2026-05-07 19:48 22.92630 113.32253 24937 ft 493 kts 167°
2026-05-07 19:48 22.89229 113.32788 24930 ft 485 kts 184°
2026-05-07 19:48 22.85920 113.32314 24935 ft 478 kts 200°
2026-05-07 19:48 22.82833 113.31040 24929 ft 474 kts 208°
2026-05-07 19:49 22.79851 113.29489 24932 ft 474 kts 209°
2026-05-07 19:49 22.76785 113.28249 24933 ft 480 kts 194°
2026-05-07 19:49 22.73441 113.27933 24934 ft 486 kts 178°
2026-05-07 19:49 22.70118 113.28608 24928 ft 491 kts 162°
2026-05-07 19:50 22.67043 113.30243 24930 ft 494 kts 146°
2026-05-07 19:50 22.64471 113.32698 24930 ft 495 kts 132°
2026-05-07 19:50 22.61956 113.35210 24938 ft 493 kts 146°
2026-05-07 19:50 22.58934 113.36938 24933 ft 490 kts 163°
2026-05-07 19:51 22.55619 113.37719 24938 ft 485 kts 179°
2026-05-07 19:51 22.52248 113.37839 24929 ft 485 kts 178°
2026-05-07 19:51 22.48899 113.38376 24933 ft 488 kts 167°
2026-05-07 19:51 22.45639 113.39417 24926 ft 489 kts 163°
2026-05-07 19:52 22.42398 113.40545 24933 ft 489 kts 165°
2026-05-07 19:52 22.39165 113.41544 24930 ft 488 kts 167°
2026-05-07 19:52 22.35872 113.42474 24924 ft 488 kts 167°
2026-05-07 19:52 22.32593 113.43402 24924 ft 488 kts 167°
2026-05-07 19:53 22.29312 113.44362 24920 ft 488 kts 166°
2026-05-07 19:53 22.26030 113.45332 24892 ft 487 kts 166°
2026-05-07 19:53 22.22818 113.46278 24821 ft 477 kts 166°
2026-05-07 19:53 22.19676 113.47275 24743 ft 464 kts 163°
2026-05-07 19:54 22.16686 113.48433 24663 ft 451 kts 161°
2026-05-07 19:54 22.13783 113.49586 24594 ft 438 kts 162°
2026-05-07 19:54 22.10939 113.50664 24481 ft 428 kts 163°
2026-05-07 19:54 22.08133 113.51695 24055 ft 427 kts 163°
2026-05-07 19:55 22.05319 113.52728 23678 ft 426 kts 163°
2026-05-07 19:55 22.02516 113.53766 23309 ft 423 kts 162°
2026-05-07 19:55 21.99747 113.54796 22934 ft 420 kts 162°
2026-05-07 19:55 21.97009 113.55849 22551 ft 417 kts 159°
2026-05-07 19:56 21.94377 113.57066 22182 ft 413 kts 157°
2026-05-07 19:56 21.91791 113.58322 21453 ft 407 kts 158°
2026-05-07 19:56 21.89210 113.59536 20692 ft 403 kts 158°
2026-05-07 19:56 21.86647 113.60708 20008 ft 396 kts 159°
2026-05-07 19:57 21.84124 113.61854 19321 ft 391 kts 159°
2026-05-07 19:57 21.81624 113.62992 18651 ft 386 kts 159°
2026-05-07 19:57 21.79168 113.64114 17984 ft 381 kts 159°
2026-05-07 19:57 21.76745 113.65222 17250 ft 376 kts 159°
2026-05-07 19:58 21.74347 113.66316 16527 ft 371 kts 159°
2026-05-07 19:58 21.71986 113.67394 15839 ft 367 kts 159°
2026-05-07 19:58 21.69640 113.68465 15153 ft 363 kts 159°
2026-05-07 19:58 21.67335 113.69516 14506 ft 358 kts 159°
2026-05-07 19:59 21.65051 113.70557 13849 ft 355 kts 159°
2026-05-07 19:59 21.62942 113.71845 13123 ft 354 kts 140°
2026-05-07 19:59 21.61382 113.73872 12425 ft 352 kts 117°
2026-05-07 19:59 21.60627 113.76350 11736 ft 350 kts 95°
2026-05-07 20:00 21.60800 113.78925 11231 ft 345 kts 71°
2026-05-07 20:00 21.61885 113.81188 11073 ft 336 kts 48°
2026-05-07 20:00 21.63621 113.82744 11022 ft 320 kts 24°
2026-05-07 20:00 21.65700 113.83410 11012 ft 311 kts
2026-05-07 20:01 21.67821 113.83930 11010 ft 312 kts 14°
2026-05-07 20:01 21.69879 113.84625 11004 ft 309 kts 19°
2026-05-07 20:01 21.71886 113.85437 11002 ft 307 kts 19°
2026-05-07 20:01 21.73889 113.86238 11005 ft 306 kts 18°
2026-05-07 20:02 21.75864 113.86997 11005 ft 302 kts 18°
2026-05-07 20:02 21.77815 113.87733 11001 ft 292 kts 17°
2026-05-07 20:02 21.79704 113.88440 11005 ft 282 kts 17°
2026-05-07 20:02 21.81527 113.89121 10945 ft 272 kts 17°
2026-05-07 20:03 21.83267 113.89773 10826 ft 259 kts 17°
2026-05-07 20:03 21.84951 113.90403 10523 ft 255 kts 17°
2026-05-07 20:03 21.86671 113.90734 10132 ft 250 kts 350°
2026-05-07 20:03 21.88282 113.90139 9722 ft 245 kts 321°
2026-05-07 20:04 21.89321 113.89295 9298 ft 244 kts 320°
2026-05-07 20:04 21.90697 113.88238 8840 ft 242 kts 326°
2026-05-07 20:04 21.92118 113.87313 8380 ft 241 kts 329°
2026-05-07 20:04 21.93586 113.86457 7919 ft 239 kts 332°
2026-05-07 20:05 21.95067 113.85650 7477 ft 238 kts 333°
2026-05-07 20:05 21.96555 113.84869 7024 ft 237 kts 333°
2026-05-07 20:05 21.98036 113.84108 6603 ft 235 kts 334°
2026-05-07 20:05 21.99516 113.83359 6170 ft 234 kts 334°
2026-05-07 20:06 22.00993 113.82616 5720 ft 233 kts 334°
2026-05-07 20:06 22.02463 113.81879 5263 ft 232 kts 334°
2026-05-07 20:06 22.03926 113.81148 4833 ft 231 kts 334°
2026-05-07 20:06 22.05383 113.80421 4401 ft 230 kts 334°
2026-05-07 20:07 22.06832 113.79700 3984 ft 228 kts 334°
2026-05-07 20:07 22.08257 113.78990 3570 ft 227 kts 334°
2026-05-07 20:07 22.09691 113.78276 3156 ft 226 kts 334°
2026-05-07 20:07 22.11114 113.77567 2744 ft 225 kts 334°
2026-05-07 20:08 22.12539 113.76857 2320 ft 224 kts 334°
2026-05-07 20:08 22.13936 113.76159 2072 ft 216 kts 334°
2026-05-07 20:08 22.15260 113.75500 2008 ft 205 kts 334°
2026-05-07 20:08 22.16529 113.74869 2002 ft 199 kts 334°
2026-05-07 20:09 22.17764 113.74256 2013 ft 192 kts 334°
2026-05-07 20:09 22.18983 113.73650 1998 ft 193 kts 334°
2026-05-07 20:09 22.20184 113.73053 1990 ft 192 kts 334°
2026-05-07 20:10 22.22588 113.71855 1581 ft 193 kts 334°
2026-05-07 20:10 22.23819 113.71266 1504 ft 193 kts 343°
2026-05-07 20:10 22.25136 113.71312 1504 ft 193 kts 26°
2026-05-07 20:10 22.26148 113.72224 1489 ft 192 kts 60°
2026-05-07 20:11 22.26777 113.73469 1486 ft 185 kts 71°
2026-05-07 20:11 22.27232 113.74723 1487 ft 175 kts 69°
2026-05-07 20:11 22.27686 113.75930 1490 ft 172 kts 68°
2026-05-07 20:11 22.28143 113.77109 1508 ft 168 kts 68°
2026-05-07 20:12 22.28601 113.78265 1494 ft 167 kts 67°
2026-05-07 20:12 22.29059 113.79404 1488 ft 168 kts 67°
2026-05-07 20:12 22.29528 113.80557 1494 ft 168 kts 67°
2026-05-07 20:12 22.29943 113.81724 1490 ft 167 kts 72°
2026-05-07 20:13 22.30409 113.82854 1274 ft 158 kts 65°
2026-05-07 20:13 22.30824 113.83933 861 ft 156 kts 74°
2026-05-07 20:13 22.31167 113.85047 715 ft 155 kts 71°
2026-05-07 20:13 22.31495 113.86117 426 ft 147 kts 69°
2026-05-07 20:14 22.31828 113.87177 246 ft 147 kts 72°
2026-05-07 20:14 22.32159 113.88224 59 ft 143 kts 71°
2026-05-07 20:14 22.32438 113.89106 39 ft 97 kts 70°
2026-05-07 20:14 22.32592 113.89581 39 ft 39 kts 70°
2026-05-07 20:15 22.32666 113.89810 41 ft 30 kts 71°
2026-05-07 20:15 22.32703 113.90028 38 ft 28 kts 94°
2026-05-07 20:15 22.32667 113.90187 41 ft 14 kts 118°
2026-05-07 20:15 22.32662 113.90195 40 ft 0 kts 122°
2026-05-07 20:16 22.32662 113.90196 40 ft 0 kts 122°
2026-05-07 20:16 22.32656 113.90207 41 ft 3 kts 120°
2026-05-07 20:16 22.32640 113.90236 41 ft 6 kts 125°
2026-05-07 20:17 22.32604 113.90274 41 ft 8 kts 137°
2026-05-07 20:17 22.32551 113.90311 41 ft 10 kts 165°
2026-05-07 20:17 22.32473 113.90332 41 ft 13 kts 161°
2026-05-07 20:17 22.32384 113.90366 42 ft 15 kts 159°
2026-05-07 20:18 22.32284 113.90404 41 ft 16 kts 163°
2026-05-07 20:18 22.32169 113.90445 40 ft 18 kts 162°
2026-05-07 20:18 22.32041 113.90489 40 ft 20 kts 164°
2026-05-07 20:18 22.31914 113.90539 39 ft 20 kts 160°
2026-05-07 20:19 22.31777 113.90589 38 ft 22 kts 161°
2026-05-07 20:19 22.31638 113.90641 39 ft 17 kts 160°
2026-05-07 20:19 22.31585 113.90683 39 ft 10 kts 120°
2026-05-07 20:19 22.31594 113.90779 39 ft 15 kts 73°
2026-05-07 20:20 22.31628 113.90890 42 ft 16 kts 69°
2026-05-07 20:20 22.31666 113.91003 43 ft 16 kts 68°
2026-05-07 20:20 22.31706 113.91125 43 ft 18 kts 71°
2026-05-07 20:20 22.31737 113.91251 44 ft 16 kts 91°
2026-05-07 20:21 22.31663 113.91326 44 ft 16 kts 162°
2026-05-07 20:21 22.31554 113.91368 45 ft 17 kts 158°
2026-05-07 20:21 22.31458 113.91419 45 ft 13 kts 120°
2026-05-07 20:21 22.31469 113.91517 44 ft 14 kts 69°
2026-05-07 20:22 22.31502 113.91627 42 ft 16 kts 73°
2026-05-07 20:22 22.31540 113.91753 38 ft 19 kts 72°
2026-05-07 20:22 22.31585 113.91890 38 ft 20 kts 69°
2026-05-07 20:22 22.31608 113.91996 39 ft 13 kts 102°
2026-05-07 20:23 22.31531 113.92056 37 ft 15 kts 159°
2026-05-07 20:23 22.31434 113.92106 36 ft 16 kts 135°
2026-05-07 20:23 22.31388 113.92207 37 ft 13 kts 93°
2026-05-07 20:23 22.31428 113.92269 37 ft 7 kts 53°
2026-05-07 20:24 22.31435 113.92281 37 ft 0 kts 58°